Shelton, WA

9:41 AM PDT on September 20, 2017 (GMT -0700)
Sanderson

Weather History for KSHN - May, 2009

Change the Weather History Date:

Tuesday, May 12, 2009

  Actual Average Record
Temperature  
Mean Temperature 46 °F -  
Max Temperature 55 °F 67 °F 87 °F (1971)
Min Temperature 37 °F 44 °F 32 °F (1985)
Degree Days  
Heating Degree Days 19    
Moisture  
Dew Point 37 °F    
Average Humidity 78    
Maximum Humidity 93    
Minimum Humidity 54    
Precipitation  
Precipitation 0.07 in - - ()
Sea Level Pressure  
Sea Level Pressure 30.01 in    
Wind  
Wind Speed 8 mph (SW)    
Max Wind Speed 22 mph    
Max Gust Speed 31 mph    
Visibility 10 miles    
Events Rain    
Averages and records for this station are not official NWS values.
T = Trace of Precipitation, MM = Missing Value Source: NWS Daily Summary

Daily Weather History Graph

Daily Weather History Graph

Search for Another Location

Airport or City:

Trip Planner

Search our weather history database for the weather conditions in past years. The results will help you decide how hot, cold, wet, or windy it might be!

Date:

Astronomy

May. 12, 2009 Rise Set
Actual Time 5:39 AM PDT 8:38 PM PDT
Civil Twilight 5:04 AM PDT 9:14 PM PDT
Nautical Twilight 4:18 AM PDT 10:01 PM PDT
Astronomical Twilight 3:22 AM PDT 10:57 PM PDT
Moon No Moon Rise 7:45 AM PDT (5/12)
Length of Visible Light 16h 10m
Length of Day
14h 58m
Waning Gibbous, 88% of the Moon is Illuminated
May 12
Waning Gibbous
May 17
Last Quarter
May 24
New
May 30
First Quarter
Jun 7
Full

Hourly Weather History & Observations

Time (PDT) Temp. Windchill Dew Point Humidity Pressure Visibility Wind Dir Wind Speed Gust Speed Precip Events Conditions
12:53 AM 39.9 °F 37.8 °F 37.0 °F 89% 29.94 in 10.0 mi SW 3.5 mph - 0.00 in   Clear
1:53 AM 41.0 °F 37.1 °F 37.4 °F 87% 29.91 in 10.0 mi South 5.8 mph - N/A   Overcast
2:42 AM 41.0 °F 32.5 °F 37.4 °F 87% 29.92 in 9.0 mi SW 17.3 mph 26.5 mph 0.00 in Rain Rain
2:53 AM 39.0 °F 30.6 °F 35.1 °F 86% 29.94 in 6.0 mi WSW 15.0 mph 23.0 mph 0.04 in Rain Rain
3:07 AM 39.2 °F 33.0 °F 35.6 °F 87% 29.93 in 10.0 mi SW 9.2 mph - 0.01 in Rain Light Rain
3:42 AM 39.2 °F 35.9 °F 35.6 °F 87% 29.92 in 10.0 mi SW 4.6 mph - 0.01 in   Mostly Cloudy
3:53 AM 37.9 °F 34.4 °F 36.0 °F 93% 29.93 in 10.0 mi SW 4.6 mph - 0.01 in   Mostly Cloudy
4:31 AM 37.4 °F - 35.6 °F 93% 29.91 in 10.0 mi Calm Calm - N/A   Mostly Cloudy
4:43 AM 37.4 °F - 35.6 °F 93% 29.91 in 10.0 mi Calm Calm - 0.00 in Rain Light Rain
4:53 AM 37.4 °F - 35.6 °F 93% 29.90 in 10.0 mi Calm Calm - N/A   Partly Cloudy
5:53 AM 37.9 °F - 36.0 °F 93% 29.92 in 10.0 mi Calm Calm - 0.00 in Rain Light Rain
6:37 AM 39.2 °F - 37.4 °F 93% 29.91 in 10.0 mi Calm Calm - 0.00 in Rain Light Rain
6:53 AM 39.9 °F - 37.0 °F 89% 29.93 in 10.0 mi Calm Calm - 0.00 in   Overcast
7:33 AM 39.2 °F - 37.4 °F 93% 29.93 in 9.0 mi Calm Calm - 0.01 in Rain Light Rain
7:53 AM 39.9 °F 36.7 °F 37.0 °F 89% 29.95 in 10.0 mi SSE 4.6 mph - 0.02 in Rain Light Rain
8:07 AM 41.0 °F 39.0 °F 37.4 °F 87% 29.94 in 10.0 mi South 3.5 mph - 0.00 in Rain Light Rain
8:49 AM 42.8 °F 38.6 °F 37.4 °F 81% 29.95 in 10.0 mi WSW 6.9 mph - 0.00 in   Mostly Cloudy
8:53 AM 43.0 °F 38.2 °F 37.9 °F 82% 29.97 in 10.0 mi SW 8.1 mph - 0.00 in   Mostly Cloudy
9:02 AM 42.8 °F 37.5 °F 37.4 °F 81% 29.96 in 10.0 mi WSW 9.2 mph - N/A   Mostly Cloudy
9:35 AM 44.6 °F 38.8 °F 39.2 °F 81% 29.97 in 10.0 mi SW 11.5 mph - N/A   Overcast
9:53 AM 45.0 °F 40.1 °F 37.9 °F 76% 29.99 in 10.0 mi West 9.2 mph 18.4 mph N/A   Overcast
10:30 AM 48.2 °F - 39.2 °F 71% 29.99 in 10.0 mi SW 12.7 mph 20.7 mph N/A   Partly Cloudy
10:53 AM 51.1 °F - 39.9 °F 66% 30.01 in 10.0 mi WSW 17.3 mph 23.0 mph N/A   Scattered Clouds
11:53 AM 52.0 °F - 37.9 °F 59% 30.03 in 10.0 mi WSW 15.0 mph 23.0 mph N/A   Partly Cloudy
12:53 PM 54.0 °F - 37.9 °F 55% 30.04 in 10.0 mi SW 15.0 mph 21.9 mph N/A   Clear
1:53 PM 55.0 °F - 39.0 °F 55% 30.06 in 10.0 mi SW 19.6 mph 25.3 mph N/A   Partly Cloudy
2:53 PM 54.0 °F - 37.9 °F 55% 30.09 in 10.0 mi SW 21.9 mph 31.1 mph N/A   Clear
3:53 PM 54.0 °F - 39.0 °F 57% 30.10 in 10.0 mi WSW 17.3 mph - N/A   Clear
4:53 PM 51.1 °F - 41.0 °F 68% 30.12 in 10.0 mi WSW 11.5 mph - 0.00 in Rain Light Rain
5:53 PM 52.0 °F - 37.0 °F 57% 30.13 in 10.0 mi WSW 16.1 mph 28.8 mph 0.00 in   Partly Cloudy
6:53 PM 52.0 °F - 36.0 °F 54% 30.14 in 10.0 mi WSW 16.1 mph 27.6 mph N/A   Clear
7:53 PM 48.9 °F - 36.0 °F 61% 30.16 in 10.0 mi WSW 11.5 mph 20.7 mph N/A   Clear
8:53 PM 46.0 °F 39.9 °F 36.0 °F 68% 30.19 in 10.0 mi SW 13.8 mph - N/A   Clear
9:53 PM 44.1 °F 38.1 °F 37.0 °F 76% 30.20 in 10.0 mi WSW 11.5 mph - N/A   Clear
10:53 PM 43.0 °F 38.2 °F 37.0 °F 80% 30.20 in 10.0 mi SW 8.1 mph - N/A   Clear
11:53 PM 39.9 °F 34.5 °F 36.0 °F 86% 30.21 in 10.0 mi SW 8.1 mph - N/A   Clear